Palm Springs, CA

10:38 PM PDT on September 25, 2016 (GMT -0700)
Palm Springs International

Weather History for KPSP - April, 2013

Change the Weather History Date:

Wednesday, April 10, 2013

  Actual Average Record
Temperature  
Mean Temperature 74 °F 70 °F  
Max Temperature 87 °F 83 °F 101 °F (1989)
Min Temperature 60 °F 56 °F 35 °F (1927)
Degree Days  
Heating Degree Days 0 1  
Month to date heating degree days 0 10  
Since 1 July heating degree days 760 861  
Cooling Degree Days 9 6  
Month to date cooling degree days 81 50  
Year to date cooling degree days 313 170  
Growing Degree Days 25 (Base 50)    
Moisture  
Dew Point 14 °F    
Average Humidity 13    
Maximum Humidity 21    
Minimum Humidity 4    
Precipitation  
Precipitation 0.00 in 0.00 in 0.35 in (1965)
Month to date precipitation 0.00 0.03  
Year to date precipitation 0.97 2.67  
Since 1 July precipitation 2.19  
Snow  
Snow 0.00 in - - ()
Month to date snowfall 0.0  
Year to date snowfall 0.0  
Snow Depth 0.00 in    
Sea Level Pressure  
Sea Level Pressure 29.97 in    
Wind  
Wind Speed 12 mph (NW)    
Max Wind Speed 28 mph    
Max Gust Speed 35 mph    
Visibility 10 miles    
Events      
T = Trace of Precipitation, MM = Missing Value Source: NWS Daily Summary

Daily Weather History Graph

Daily Weather History Graph

Search for Another Location

Airport or City:

Trip Planner

Search our weather history database for the weather conditions in past years. The results will help you decide how hot, cold, wet, or windy it might be!

Date:

Astronomy

Apr. 10, 2013 Rise Set
Actual Time 6:21 AM PDT 7:13 PM PDT
Civil Twilight 5:55 AM PDT 7:39 PM PDT
Nautical Twilight 5:25 AM PDT 8:09 PM PDT
Astronomical Twilight 4:54 AM PDT 8:40 PM PDT
Moon 6:21 AM PDT (4/10) 7:50 PM PDT (4/10)
Length of Visible Light 13h 43m
Length of Day
12h 52m
New Moon, 0% of the Moon is Illuminated
Apr 10
New Moon
Apr 18
First Quarter
Apr 25
Full
May 2
Last Quarter
May 9
New

Hourly Weather History & Observations

Time (PDT) Temp. Dew Point Humidity Pressure Visibility Wind Dir Wind Speed Gust Speed Precip Events Conditions
12:53 AM 68.0 °F 21.9 °F 17% 29.96 in 10.0 mi NW 12.7 mph - N/A   Clear
1:53 AM 68.0 °F 21.0 °F 17% 29.97 in 10.0 mi North 11.5 mph 19.6 mph N/A   Clear
2:53 AM 66.9 °F 19.9 °F 17% 29.96 in 10.0 mi NNW 12.7 mph - N/A   Clear
3:53 AM 64.9 °F 21.0 °F 19% 29.96 in 10.0 mi NNW 8.1 mph - N/A   Clear
4:53 AM 69.1 °F 16.0 °F 13% 29.98 in 10.0 mi North 10.4 mph - N/A   Clear
5:53 AM 63.0 °F 23.0 °F 22% 30.01 in 10.0 mi NNE 6.9 mph - N/A   Clear
6:53 AM 64.9 °F 19.9 °F 18% 30.05 in 10.0 mi West 4.6 mph - N/A   Clear
7:53 AM 68.0 °F 21.0 °F 17% 30.06 in 10.0 mi SSW 3.5 mph - N/A   Clear
8:53 AM 73.9 °F 15.1 °F 11% 30.07 in 10.0 mi North 16.1 mph 21.9 mph N/A   Clear
9:08 AM 75.2 °F 10.4 °F 8% 30.07 in 10.0 mi North 16.1 mph 29.9 mph N/A   Clear
10:53 AM 80.1 °F 9.0 °F 7% 30.04 in 10.0 mi NNE 24.2 mph 33.4 mph N/A   Clear
12:53 PM 84.0 °F 1.9 °F 4% 30.01 in 10.0 mi North 12.7 mph 24.2 mph N/A   Clear
1:53 PM 86.0 °F -0.9 °F 4% 29.97 in 10.0 mi NNE 17.3 mph 29.9 mph N/A   Clear
2:53 PM 86.0 °F 1.0 °F 4% 29.94 in 10.0 mi SSW 8.1 mph - N/A   Clear
3:53 PM 87.1 °F 1.9 °F 4% 29.91 in 10.0 mi SW 10.4 mph - N/A   Clear
4:53 PM 86.0 °F 1.0 °F 4% 29.88 in 10.0 mi SSW 9.2 mph - N/A   Clear
5:53 PM 86.0 °F 3.0 °F 4% 29.88 in 10.0 mi West 4.6 mph - N/A   Clear
6:53 PM 82.9 °F 9.0 °F 6% 29.88 in 10.0 mi NW 4.6 mph - N/A   Clear
7:53 PM 81.0 °F 19.9 °F 10% 29.90 in 10.0 mi NW 10.4 mph 21.9 mph N/A   Clear
8:53 PM 79.0 °F 19.9 °F 11% 29.92 in 10.0 mi NW 6.9 mph - N/A   Clear
9:53 PM 77.0 °F 23.0 °F 13% 29.93 in 10.0 mi NW 6.9 mph - N/A   Clear
10:53 PM 73.0 °F 25.0 °F 17% 29.94 in 10.0 mi WSW 4.6 mph - N/A   Clear
11:53 PM 69.1 °F 26.1 °F 20% 29.93 in 10.0 mi SE 4.6 mph - N/A   Clear